Regional Weather Roundup
Issued by NWS

Home | Current Version | Previous Version | Graphics & Text | Print | Product List | Glossary On
Versions: 1 2 3 4 5 6 7 8 9 10 11 12 13 14 15 16 17 18 19 20 21 22 23 24 25 26 27 28 29 30 31 32 33 34 35 36 37 38 39 40 41 42 43 44 45 46 47 48 49 50
000
ASUS45 KTFX 201004
RWRMT
MONTANA HOURLY WEATHER ROUNDUP
NATIONAL WEATHER SERVICE GREAT FALLS MT
404 AM MDT SAT SEP 20 2014

NOTE: "FAIR" INDICATES FEW OR NO CLOUDS BELOW 12000 FEET WITH NO
SIGNIFICANT WEATHER AND/OR OBSTRUCTIONS TO VISIBILITY.

* THESE STATIONS ARE NOT UNDER NWS QUALITY CONTROL. THEY DO NOT
   REPORT WEATHER SUCH AS PRECIPITATION OR FOG.

MTZ001>007-043-201100-
WEST OF THE DIVIDE
CITY           SKY/WX    TMP DP  RH WIND       PRES   REMARKS
KALISPELL      PTCLDY    43  41  93 CALM      30.16R
MISSOULA       MOCLDY    48  43  83 CALM      30.21R
BUTTE          PTCLDY    41  37  86 CALM      30.27R
MULLAN PASS    CLEAR     48  43  83 CALM      30.27R
* ESSEX        N/A       46  44  93 N/A        N/A
* LINCOLN      N/A       44  41  89 S1         N/A
* LOOKOUT PASS N/A       45  43  93 S2         N/A
* POLSON       N/A       53  45  74 S1         N/A
* RONAN APT    MOCLDY    45  39  80 N/A        N/A
* SEELEY LAKE  N/A       38  36  93 N/A        N/A
* THOMP F APT  PTCLDY    52  39  61 NE3G8      N/A
$$

MTZ008-052>055-201100-
SOUTHWEST MONTANA
CITY           SKY/WX    TMP DP  RH WIND       PRES   REMARKS
BOZEMAN        PTCLDY    46  41  83 S9        30.22R
DILLON         CLEAR     45  37  74 SE6       30.24R
W YELLOWSTONE  CLEAR     36  36 100 CALM      30.30S
* THREE FORKS  PTCLDY    43  25  49 N/A        N/A
* BOULDER HILL N/A       48  36  63 S3         N/A
* MONIDA PASS  N/A       44  39  83 W6         N/A
* RAYNOLDS PAS N/A       42  40  93 N2         N/A
* WHITEHALL    N/A       49  41  74 NW4        N/A
* WISE RIVER   N/A       42  38  86 S3G8       N/A
$$

MTZ009>010-012-014-046-048-049-054-201100-
EAST SLOPES AND CENTRAL MONTANA
CITY           SKY/WX    TMP DP  RH WIND       PRES   REMARKS
CUT BANK       PTCLDY    48  39  71 NW10      30.10R
GREAT FALLS    PTCLDY    48  41  77 SW12      30.11R
HELENA         PTCLDY    57  43  60 CALM      30.17R
MALMSTROM AFB  CLEAR     50  43  77 SW10      30.13R
* CONRAD       PTCLDY    46  43  89 N/A        N/A
* EAST GLACIER N/A       54  41  62 W5         N/A
* MONARCH      N/A       53  36  53 W8G18      N/A
* PENDROY      N/A       54  41  62 W15        N/A
* ROGERS PASS  N/A       51  41  69 SE8        N/A
* SAINT MARY   N/A       58  42  55 S6G18      N/A
* SWEET GRASS  N/A       53  40  62 NW13       N/A
$$

MTZ011-013-016-021-035-040-045-047-050-051-201100-
NORTH CENTRAL MONTANA
CITY           SKY/WX    TMP DP  RH WIND       PRES   REMARKS
HAVRE          CLEAR     55  43  64 W15G24    30.02R
LEWISTOWN      PTCLDY    48  39  71 W10       30.13R
* CHESTER      N/A       53  41  64 W9G14      N/A
* DENTON       N/A       55  44  67 SW12G17    N/A
* GEYSER       N/A       52  42  69 W9         N/A
* JUDITH GAP   N/A       49  40  71 SE4        N/A
* LOMA         N/A       52  42  69 SW6G11     N/A
$$

MTZ017>020-022>027-061-062-201100-
NORTHEAST MONTANA
CITY           SKY/WX    TMP DP  RH WIND       PRES   REMARKS
GLASGOW        CLEAR     54  46  74 W8        29.90R
JORDAN         CLEAR     50  45  83 W5        29.98R
SIDNEY         MOCLDY    50  48  93 S6        29.89S
WOLF POINT     CLEAR     52  48  86 W6        29.88S
* BEAVER HILL  N/A       54  46  74 SW10       N/A
* CIRCLE       N/A       53  48  83 W3         N/A
* LINDSAY DVD  N/A       58  46  65 W17G24     N/A
$$

MTZ028>042-056>058-201100-
SOUTHCENTRAL AND SOUTHEAST MONTANA
CITY           SKY/WX    TMP DP  RH WIND       PRES   REMARKS
BAKER          PTCLDY    54  46  74 W9        29.97R
BILLINGS       PTCLDY    55  43  64 SW9       30.11R
LIVINGSTON     PTCLDY    50  39  66 W10       30.19R
MILES CITY     CLEAR     55  45  69 W8        29.99R
* LAUREL APT   CLEAR     52  41  66 SW5        N/A
* ROUNDUP APT  CLOUDY    50  43  77 S8         N/A
* ALZADA       N/A       53  47  80 NW2        N/A
* HYSHAM       N/A       54  41  62 W2         N/A
* LAME DEER    N/A       56  44  64 W8         N/A
* REED POINT   N/A       51  41  69 E2         N/A
* ROSCOE HILL  N/A       54  36  51 SW6        N/A
$$

REGIONAL REPORTS...DAKOTAS
CITY           SKY/WX    TMP DP  RH WIND       PRES   REMARKS
WILLISTON      CLOUDY    54  50  86 SW7       29.85S
DICKINSON      CLEAR     50  45  83 W7        29.89S
BEACH          N/A       54  48  80 W10       29.94R
CROSBY         PTCLDY    55  55 100 SW10      29.82S
TIOGA          FAIR      46  46 100 W3        29.88R
WATFORD CITY   LGT RAIN  50  48  93 W8        29.86R
BISMARCK       MOCLDY    54  52  93 SW3       29.87R
GRAND FORKS    CLEAR     52  48  86 CALM      29.76R
FARGO          CLEAR     54  52  93 NW7       29.78R
BUFFALO SD     PTCLDY    54  46  74 W10       29.92S
RAPID CITY     PTCLDY    55  46  72 NW8       30.01R
$$

REGIONAL REPORTS...WYOMING/IDAHO/WASHINGTON
CITY           SKY/WX    TMP DP  RH WIND       PRES   REMARKS
GILLETTE       CLEAR     55  46  72 W9        30.09R
SHERIDAN       CLEAR     50  45  83 CALM      30.10R
CODY           CLEAR    N/A N/A N/A N/A        N/A
YELLOWSTONE LA PTCLDY    36  36 100 CALM      30.37R
SALMON         PTCLDY    46  39  77 CALM      30.21R
MULLAN PASS    CLEAR     48  43  83 CALM      30.27S
SAND POINT     CLEAR     46  46 100 W3        30.14R
SPOKANE        PTCLDY    57  45  64 CALM      30.12S
$$

REGIONAL REPORTS...SASKATCHEWAN
CITY           SKY/WX    TMP DP  RH WIND       PRES   REMARKS
SWIFT CURRENT  LGT RAIN  52  48  86 NW3       29.94S

$$



USA.gov is the U.S. government's official web portal to all federal, state and local government web resources and services.